Meteo pe oră la Bolshie Sloveni

Astăzi, 9 Mai, Duminică

Timp Temperatura Precipitaţii Vânt Presiune Umiditate
00:00 0°C° 0 mm 5 m/s 743 mmHg 77%
01:00 0°C° 0 mm 5 m/s 743 mmHg 81%
02:00 -1°C° 0 mm 4 m/s 744 mmHg 85%
03:00 -1°C° 0 mm 4 m/s 745 mmHg 84%
04:00 -1°C° 0 mm 4 m/s 745 mmHg 83%
05:00 -2°C° 0 mm 4 m/s 746 mmHg 82%
06:00 0°C° 0 mm 4 m/s 746 mmHg 74%
07:00 +2°C° 0 mm 5 m/s 747 mmHg 67%
08:00 +5°C° 0 mm 5 m/s 748 mmHg 60%
09:00 +6°C° 0 mm 5 m/s 748 mmHg 55%
10:00 +7°C° 0 mm 5 m/s 748 mmHg 51%
11:00 +8°C° 0 mm 5 m/s 748 mmHg 46%
12:00 +9°C° 0 mm 5 m/s 749 mmHg 45%
13:00 +9°C° 0 mm 5 m/s 749 mmHg 44%
14:00 +10°C° 0 mm 5 m/s 749 mmHg 43%
15:00 +11°C° 0 mm 4 m/s 749 mmHg 44%
16:00 +11°C° 0 mm 3 m/s 749 mmHg 44%
17:00 +12°C° 0 mm 2 m/s 750 mmHg 45%
18:00 +9°C° 0 mm 2 m/s 750 mmHg 49%
19:00 +8°C° 0 mm 2 m/s 750 mmHg 53%
20:00 +7°C° 0 mm 1 m/s 751 mmHg 57%
21:00 +5°C° 0 mm 2 m/s 751 mmHg 59%
22:00 +5°C° 0 mm 2 m/s 751 mmHg 60%
23:00 +3°C° 0 mm 3 m/s 751 mmHg 62%

Mâine, 10 Mai, Luni

Timp Temperatura Precipitaţii Vânt Presiune Umiditate
00:00 +3°C° 0 mm 3 m/s 752 mmHg 64%
01:00 +3°C° 0 mm 3 m/s 752 mmHg 66%
02:00 +2°C° 0 mm 3 m/s 752 mmHg 68%
03:00 +2°C° 0 mm 3 m/s 752 mmHg 69%
04:00 +2°C° 0 mm 3 m/s 753 mmHg 70%
05:00 +2°C° 0 mm 3 m/s 753 mmHg 72%
06:00 +4°C° 0 mm 3 m/s 753 mmHg 68%
07:00 +6°C° 0 mm 4 m/s 753 mmHg 65%
08:00 +8°C° 0 mm 4 m/s 753 mmHg 61%
09:00 +11°C° 0 mm 4 m/s 753 mmHg 58%
10:00 +12°C° 0 mm 4 m/s 753 mmHg 56%
11:00 +14°C° 0 mm 4 m/s 754 mmHg 53%
12:00 +14°C° 0 mm 4 m/s 753 mmHg 52%
13:00 +15°C° 0 mm 4 m/s 753 mmHg 51%
14:00 +15°C° 0 mm 4 m/s 753 mmHg 50%
15:00 +16°C° 0 mm 3 m/s 753 mmHg 53%
16:00 +16°C° 0 mm 3 m/s 753 mmHg 55%
17:00 +16°C° 0 mm 3 m/s 753 mmHg 57%
18:00 +13°C° 0 mm 3 m/s 753 mmHg 62%
19:00 +12°C° 0 mm 3 m/s 753 mmHg 67%
20:00 +10°C° 0 mm 3 m/s 753 mmHg 73%
21:00 +9°C° 0 mm 3 m/s 753 mmHg 73%
22:00 +8°C° 0 mm 3 m/s 753 mmHg 74%
23:00 +7°C° 0 mm 3 m/s 753 mmHg 75%

Poimâine, 11 Mai, Marţi

Timp Temperatura Precipitaţii Vânt Presiune Umiditate
00:00 +7°C° 0 mm 3 m/s 753 mmHg 74%
01:00 +7°C° 0 mm 3 m/s 753 mmHg 73%
02:00 +5°C° 0 mm 3 m/s 754 mmHg 72%
03:00 +5°C° 0 mm 3 m/s 754 mmHg 73%
04:00 +6°C° 0 mm 2 m/s 754 mmHg 74%
05:00 +6°C° 0 mm 2 m/s 754 mmHg 75%
06:00 +8°C° 0 mm 3 m/s 754 mmHg 71%
07:00 +10°C° 0 mm 3 m/s 754 mmHg 66%
08:00 +12°C° 0 mm 3 m/s 754 mmHg 61%
09:00 +13°C° 0 mm 4 m/s 753 mmHg 57%
10:00 +14°C° 0 mm 4 m/s 753 mmHg 53%
11:00 +15°C° 0 mm 5 m/s 753 mmHg 48%
12:00 +16°C° 0 mm 5 m/s 753 mmHg 48%
13:00 +16°C° 0 mm 5 m/s 752 mmHg 47%
14:00 +17°C° 0 mm 5 m/s 752 mmHg 46%
15:00 +18°C° 0 mm 4 m/s 752 mmHg 50%
16:00 +18°C° 0 mm 4 m/s 752 mmHg 53%
17:00 +17°C° 0 mm 4 m/s 751 mmHg 57%
18:00 +14°C° 0 mm 4 m/s 751 mmHg 64%
19:00 +13°C° 0 mm 4 m/s 751 mmHg 71%
20:00 +11°C° 0 mm 3 m/s 751 mmHg 78%
21:00 +10°C° 0 mm 3 m/s 751 mmHg 82%
22:00 +10°C° 0 mm 3 m/s 751 mmHg 86%
23:00 +10°C° 0 mm 3 m/s 751 mmHg 91%

12 Mai, Miercuri

Timp Temperatura Precipitaţii Vânt Presiune Umiditate
00:00 +9°C° 0 mm 3 m/s 750 mmHg 92%
01:00 +9°C° 0 mm 3 m/s 750 mmHg 93%
02:00 +9°C° 0 mm 3 m/s 750 mmHg 94%
03:00 +9°C° 0 mm 3 m/s 750 mmHg 94%
04:00 +9°C° 0 mm 3 m/s 750 mmHg 95%
05:00 +9°C° 0 mm 3 m/s 749 mmHg 95%
06:00 +10°C° 0 mm 4 m/s 749 mmHg 89%
07:00 +12°C° 0 mm 5 m/s 749 mmHg 82%
08:00 +14°C° 0 mm 6 m/s 748 mmHg 76%
09:00 +14°C° 0 mm 5 m/s 748 mmHg 78%
10:00 +14°C° 0 mm 5 m/s 748 mmHg 81%
11:00 +14°C° 0 mm 5 m/s 747 mmHg 83%
12:00 +13°C° 1 mm 4 m/s 747 mmHg 87%
13:00 +12°C° 1 mm 4 m/s 746 mmHg 92%
14:00 +11°C° 1 mm 4 m/s 746 mmHg 96%
15:00 +11°C° 1.3 mm 4 m/s 746 mmHg 92%
16:00 +11°C° 1.3 mm 4 m/s 747 mmHg 89%
17:00 +10°C° 1.3 mm 4 m/s 747 mmHg 85%
18:00 +10°C° 0 mm 4 m/s 747 mmHg 88%
19:00 +8°C° 0 mm 4 m/s 747 mmHg 90%
20:00 +8°C° 0 mm 3 m/s 747 mmHg 93%
21:00 +8°C° 0 mm 4 m/s 747 mmHg 91%
22:00 +8°C° 0 mm 4 m/s 747 mmHg 90%
23:00 +8°C° 0 mm 5 m/s 747 mmHg 89%

13 Mai, Joi

Timp Temperatura Precipitaţii Vânt Presiune Umiditate
00:00 +8°C° 0 mm 5 m/s 746 mmHg 90%
01:00 +7°C° 0 mm 5 m/s 746 mmHg 91%
02:00 +7°C° 0 mm 5 m/s 746 mmHg 92%
03:00 +7°C° 0 mm 5 m/s 745 mmHg 91%
04:00 +8°C° 0 mm 5 m/s 744 mmHg 90%
05:00 +8°C° 0 mm 5 m/s 744 mmHg 89%
06:00 +9°C° 0.1 mm 6 m/s 743 mmHg 89%
07:00 +9°C° 0.1 mm 6 m/s 743 mmHg 89%
08:00 +10°C° 0.1 mm 7 m/s 742 mmHg 89%
09:00 +10°C° 0.4 mm 6 m/s 742 mmHg 87%
10:00 +11°C° 0.4 mm 6 m/s 742 mmHg 85%
11:00 +11°C° 0.4 mm 6 m/s 741 mmHg 83%
12:00 +11°C° 0.5 mm 7 m/s 741 mmHg 78%
13:00 +12°C° 0.5 mm 7 m/s 741 mmHg 74%
14:00 +13°C° 0.5 mm 8 m/s 741 mmHg 69%
15:00 +12°C° 0.2 mm 7 m/s 741 mmHg 71%
16:00 +12°C° 0.2 mm 7 m/s 741 mmHg 72%
17:00 +13°C° 0.2 mm 6 m/s 741 mmHg 74%
18:00 +12°C° 0 mm 5 m/s 741 mmHg 77%
19:00 +10°C° 0 mm 5 m/s 742 mmHg 81%
20:00 +10°C° 0 mm 4 m/s 742 mmHg 85%
21:00 +10°C° 0.1 mm 4 m/s 742 mmHg 87%
22:00 +10°C° 0.1 mm 3 m/s 742 mmHg 90%
23:00 +10°C° 0.1 mm 3 m/s 742 mmHg 92%

14 Mai, Vineri

Timp Temperatura Precipitaţii Vânt Presiune Umiditate
00:00 +10°C° 0.1 mm 3 m/s 742 mmHg 93%
01:00 +10°C° 0.1 mm 3 m/s 742 mmHg 94%
02:00 +9°C° 0.1 mm 3 m/s 741 mmHg 94%
03:00 +9°C° 0 mm 3 m/s 741 mmHg 94%
04:00 +9°C° 0 mm 2 m/s 741 mmHg 94%
05:00 +9°C° 0 mm 2 m/s 741 mmHg 94%
06:00 +10°C° 0 mm 2 m/s 741 mmHg 91%
07:00 +13°C° 0 mm 2 m/s 741 mmHg 88%
08:00 +14°C° 0 mm 2 m/s 740 mmHg 85%
09:00 +15°C° 0 mm 2 m/s 740 mmHg 79%
10:00 +16°C° 0 mm 2 m/s 740 mmHg 73%
11:00 +18°C° 0 mm 2 m/s 740 mmHg 66%
12:00 +18°C° 0.1 mm 2 m/s 740 mmHg 64%
13:00 +19°C° 0.1 mm 2 m/s 740 mmHg 62%
14:00 +19°C° 0.1 mm 3 m/s 740 mmHg 59%
15:00 +19°C° 0.1 mm 2 m/s 740 mmHg 60%
16:00 +19°C° 0.1 mm 2 m/s 740 mmHg 61%
17:00 +20°C° 0.1 mm 1 m/s 740 mmHg 61%
18:00 +19°C° 0.1 mm 1 m/s 740 mmHg 68%
19:00 +16°C° 0.1 mm 1 m/s 740 mmHg 74%
20:00 +15°C° 0.1 mm 1 m/s 740 mmHg 80%
21:00 +14°C° 0 mm 1 m/s 740 mmHg 83%
22:00 +13°C° 0 mm 1 m/s 740 mmHg 87%
23:00 +13°C° 0 mm 2 m/s 740 mmHg 90%
Arată mai mult

Formular de consimțământ

Meteoprog și furnizorii noștri de servicii pot stoca și accesa date personale, precum cookies, identificatori de dispozitiv sau alte tehnologii similare pe dispozitivul dumneavoastră și procesa astfel de date pentru a personaliza conținutul și reclamele, dar și pentru a oferi caracteristici de social media și pentru a analiza traficul.

  • Stocarea și/sau accesarea informațiilor pe dispozitivul dumneavoastră

    Cookies, identificatori de dispozitiv sau alte informații pot fi stocate sau accesate pe dispozitiv în scopurile indicate mai sus.

  • Reclame și conținut personalizat, evaluarea reclamelor și a conținutului, informații despre audiențe și dezvoltarea produselor

    Reclamele și conținutul pot fi personalizate pe baza unui profil. Pot fi adăugate date suplimentare pentru a personaliza mai bine reclamele și conținutul. Performanța reclamelor și conținutului poate fi măsurată. Pot fi obținute informații despre utilizatorii care au văzut reclamele și conținutul. Aceste date pot fi utilizate pentru a dezvolta sau îmbunătăți experiența utilizatorilor, sistemele și software-ul.

Dând clic pe ‘Sunt de acord’, permiteți utilizarea cookie-urilor menționate, a identificatorilor de dispozitiv, balizelor web sau altor tehnologii similare. Setările pot fi modificate din browser-ul dispozitivului dumneavoastră.

În anumite scopuri, interesele legitime pot prima asupra consimțământului. Puteți citi mai multe informații în acest sens în Politica privind Confidențialitatea Datelor și Cookie.